• In Denmark
  • List of Countries
  • For 7 days
  • Water Temperature
  • Satellite Maps
  • Weather Map
  • Weather Widgets
  • user-avatar
    Login

    Hourly Weather Kaprun

    Today, 20 June, Wednesday

    Time Temperature Precipitation Wind Pressure Humidity
    00:00 +7°C° 0 mm 1 mps 603 mmHg 96%
    01:00 +7°C° 0 mm 1 mps 603 mmHg 96%
    02:00 +7°C° 0 mm 1 mps 602 mmHg 96%
    03:00 +7°C° 0 mm 1 mps 602 mmHg 96%
    04:00 +6°C° 0 mm 1 mps 602 mmHg 95%
    05:00 +8°C° 0 mm 1 mps 603 mmHg 89%
    06:00 +9°C° 0 mm 0 mps 604 mmHg 83%
    07:00 +11°C° 0 mm 0 mps 605 mmHg 78%
    08:00 +13°C° 0 mm 0 mps 605 mmHg 69%
    09:00 +16°C° 0 mm 1 mps 606 mmHg 61%
    10:00 +19°C° 0 mm 1 mps 607 mmHg 53%
    11:00 +19°C° 0.1 mm 1 mps 606 mmHg 52%
    12:00 +20°C° 0.1 mm 1 mps 606 mmHg 51%
    13:00 +20°C° 0.1 mm 1 mps 606 mmHg 50%
    14:00 +20°C° 0.2 mm 1 mps 606 mmHg 54%
    15:00 +19°C° 0.2 mm 1 mps 605 mmHg 57%
    16:00 +19°C° 0.2 mm 1 mps 605 mmHg 61%
    17:00 +18°C° 0.7 mm 1 mps 604 mmHg 69%
    18:00 +16°C° 0.7 mm 1 mps 604 mmHg 77%
    19:00 +15°C° 0.7 mm 1 mps 604 mmHg 85%
    20:00 +13°C° 0.3 mm 1 mps 603 mmHg 88%
    21:00 +11°C° 0.3 mm 1 mps 602 mmHg 92%
    22:00 +10°C° 0.3 mm 1 mps 602 mmHg 95%
    23:00 +10°C° 0 mm 1 mps 602 mmHg 95%

    Tomorrow, 21 June, Thursday

    Time Temperature Precipitation Wind Pressure Humidity
    00:00 +9°C° 0 mm 1 mps 602 mmHg 95%
    01:00 +9°C° 0 mm 1 mps 601 mmHg 95%
    02:00 +9°C° 0 mm 1 mps 601 mmHg 94%
    03:00 +8°C° 0 mm 1 mps 601 mmHg 94%
    04:00 +8°C° 0 mm 1 mps 600 mmHg 94%
    05:00 +10°C° 0 mm 1 mps 601 mmHg 89%
    06:00 +12°C° 0 mm 1 mps 601 mmHg 85%
    07:00 +14°C° 0 mm 1 mps 602 mmHg 80%
    08:00 +15°C° 0.1 mm 1 mps 603 mmHg 72%
    09:00 +18°C° 0.1 mm 1 mps 603 mmHg 65%
    10:00 +20°C° 0.1 mm 1 mps 604 mmHg 57%
    11:00 +20°C° 1 mm 1 mps 603 mmHg 58%
    12:00 +20°C° 1 mm 1 mps 603 mmHg 59%
    13:00 +20°C° 1 mm 1 mps 603 mmHg 61%
    14:00 +18°C° 2 mm 2 mps 602 mmHg 67%
    15:00 +17°C° 2 mm 2 mps 601 mmHg 74%
    16:00 +16°C° 2 mm 2 mps 601 mmHg 80%
    17:00 +15°C° 2 mm 2 mps 600 mmHg 85%
    18:00 +14°C° 2 mm 2 mps 600 mmHg 90%
    19:00 +12°C° 2 mm 2 mps 600 mmHg 95%
    20:00 +10°C° 1.2 mm 2 mps 600 mmHg 96%
    21:00 +10°C° 1.2 mm 2 mps 600 mmHg 97%
    22:00 +9°C° 1.2 mm 2 mps 600 mmHg 98%
    23:00 +8°C° 0.3 mm 2 mps 600 mmHg 98%

    Day after tomorrow, 22 June, Friday

    Time Temperature Precipitation Wind Pressure Humidity
    00:00 +7°C° 0.3 mm 2 mps 600 mmHg 98%
    01:00 +7°C° 0.3 mm 2 mps 599 mmHg 98%
    02:00 +6°C° 0.1 mm 2 mps 599 mmHg 98%
    03:00 +5°C° 0.1 mm 2 mps 599 mmHg 98%
    04:00 +4°C° 0.1 mm 2 mps 599 mmHg 98%
    05:00 +4°C° 0.1 mm 2 mps 599 mmHg 96%
    06:00 +4°C° 0.1 mm 2 mps 599 mmHg 95%
    07:00 +4°C° 0.1 mm 2 mps 599 mmHg 94%
    08:00 +5°C° 0 mm 3 mps 600 mmHg 85%
    09:00 +7°C° 0 mm 3 mps 600 mmHg 77%
    10:00 +8°C° 0 mm 3 mps 601 mmHg 69%
    11:00 +9°C° 0 mm 3 mps 601 mmHg 60%
    12:00 +10°C° 0 mm 3 mps 602 mmHg 50%
    13:00 +12°C° 0 mm 3 mps 602 mmHg 41%
    14:00 +11°C° 0 mm 3 mps 602 mmHg 44%
    15:00 +11°C° 0 mm 3 mps 602 mmHg 46%
    16:00 +10°C° 0 mm 4 mps 602 mmHg 49%
    17:00 +9°C° 0.1 mm 3 mps 601 mmHg 58%
    18:00 +7°C° 0.1 mm 3 mps 601 mmHg 67%
    19:00 +6°C° 0.1 mm 2 mps 600 mmHg 77%
    20:00 +5°C° 0.1 mm 2 mps 600 mmHg 81%
    21:00 +4°C° 0.1 mm 2 mps 600 mmHg 86%
    22:00 +3°C° 0.1 mm 2 mps 600 mmHg 90%
    23:00 +3°C° 0 mm 1 mps 600 mmHg 91%

    23 June, Saturday

    Time Temperature Precipitation Wind Pressure Humidity
    00:00 +3°C° 0 mm 1 mps 600 mmHg 92%
    01:00 +2°C° 0 mm 1 mps 600 mmHg 93%
    02:00 +2°C° 0 mm 1 mps 599 mmHg 93%
    03:00 +2°C° 0 mm 1 mps 599 mmHg 92%
    04:00 +2°C° 0 mm 1 mps 599 mmHg 92%
    05:00 +3°C° 0 mm 1 mps 600 mmHg 87%
    06:00 +4°C° 0 mm 1 mps 600 mmHg 82%
    07:00 +5°C° 0 mm 1 mps 600 mmHg 77%
    08:00 +6°C° 0 mm 2 mps 601 mmHg 68%
    09:00 +7°C° 0 mm 2 mps 602 mmHg 60%
    10:00 +9°C° 0 mm 2 mps 602 mmHg 51%
    11:00 +10°C° 0 mm 2 mps 602 mmHg 48%
    12:00 +12°C° 0 mm 2 mps 602 mmHg 45%
    13:00 +13°C° 0 mm 2 mps 603 mmHg 42%
    14:00 +11°C° 0 mm 3 mps 602 mmHg 46%
    15:00 +11°C° 0 mm 3 mps 602 mmHg 49%
    16:00 +10°C° 0 mm 3 mps 602 mmHg 53%
    17:00 +9°C° 0.2 mm 3 mps 601 mmHg 61%
    18:00 +8°C° 0.2 mm 2 mps 601 mmHg 70%
    19:00 +6°C° 0.2 mm 2 mps 600 mmHg 79%
    20:00 +5°C° 0.1 mm 2 mps 600 mmHg 84%
    21:00 +4°C° 0.1 mm 2 mps 600 mmHg 90%
    22:00 +3°C° 0.1 mm 1 mps 599 mmHg 95%
    23:00 +3°C° 0.1 mm 1 mps 599 mmHg 95%

    24 June, Sunday

    Time Temperature Precipitation Wind Pressure Humidity
    00:00 +3°C° 0.1 mm 1 mps 599 mmHg 94%
    01:00 +3°C° 0.1 mm 1 mps 599 mmHg 94%
    02:00 +2°C° 0 mm 1 mps 599 mmHg 94%
    03:00 +2°C° 0 mm 1 mps 599 mmHg 94%
    04:00 +2°C° 0 mm 1 mps 599 mmHg 94%
    05:00 +3°C° 0 mm 1 mps 599 mmHg 90%
    06:00 +4°C° 0 mm 1 mps 600 mmHg 85%
    07:00 +5°C° 0 mm 1 mps 600 mmHg 81%
    08:00 +6°C° 0.1 mm 1 mps 601 mmHg 74%
    09:00 +6°C° 0.1 mm 2 mps 601 mmHg 68%
    10:00 +8°C° 0.1 mm 2 mps 602 mmHg 61%
    11:00 +8°C° 0.2 mm 2 mps 602 mmHg 61%
    12:00 +8°C° 0.2 mm 2 mps 602 mmHg 61%
    13:00 +9°C° 0.2 mm 2 mps 602 mmHg 61%
    14:00 +9°C° 0.2 mm 2 mps 602 mmHg 63%
    15:00 +9°C° 0.2 mm 2 mps 602 mmHg 64%
    16:00 +9°C° 0.2 mm 2 mps 601 mmHg 66%
    17:00 +8°C° 0.2 mm 2 mps 601 mmHg 71%
    18:00 +7°C° 0.2 mm 2 mps 601 mmHg 77%
    19:00 +7°C° 0.2 mm 2 mps 601 mmHg 82%
    20:00 +6°C° 0.1 mm 1 mps 601 mmHg 87%
    21:00 +5°C° 0.1 mm 1 mps 600 mmHg 92%
    22:00 +3°C° 0.1 mm 1 mps 600 mmHg 96%
    23:00 +3°C° 0 mm 1 mps 600 mmHg 96%

    25 June, Monday

    Time Temperature Precipitation Wind Pressure Humidity
    00:00 +2°C° 0 mm 1 mps 600 mmHg 97%
    01:00 +2°C° 0 mm 1 mps 599 mmHg 97%
    02:00 +2°C° 0 mm 1 mps 599 mmHg 96%
    03:00 +1°C° 0 mm 1 mps 599 mmHg 95%
    04:00 +1°C° 0 mm 1 mps 599 mmHg 94%
    05:00 +3°C° 0 mm 1 mps 600 mmHg 88%
    06:00 +5°C° 0 mm 1 mps 600 mmHg 83%
    07:00 +6°C° 0 mm 1 mps 601 mmHg 77%
    08:00 +8°C° 0 mm 1 mps 602 mmHg 67%
    09:00 +9°C° 0 mm 2 mps 603 mmHg 58%
    10:00 +12°C° 0 mm 2 mps 603 mmHg 49%
    11:00 +13°C° 0 mm 2 mps 604 mmHg 47%
    12:00 +13°C° 0 mm 2 mps 604 mmHg 46%
    13:00 +14°C° 0 mm 2 mps 604 mmHg 44%
    14:00 +14°C° 0.1 mm 2 mps 604 mmHg 48%
    15:00 +13°C° 0.1 mm 2 mps 603 mmHg 51%
    16:00 +12°C° 0.1 mm 3 mps 603 mmHg 55%
    17:00 +12°C° 0.1 mm 2 mps 603 mmHg 63%
    18:00 +10°C° 0.1 mm 2 mps 603 mmHg 71%
    19:00 +9°C° 0.1 mm 2 mps 602 mmHg 78%
    20:00 +8°C° 0 mm 1 mps 602 mmHg 84%
    21:00 +6°C° 0 mm 1 mps 602 mmHg 90%
    22:00 +4°C° 0 mm 1 mps 601 mmHg 95%
    23:00 +4°C° 0 mm 1 mps 601 mmHg 95%
    Show more